Vorticity
5 6 7 8 9 10 11 12 12 11 9 8 9 10 10 9 10 11 12 13 13 13 14 14 14 14 13 13 12 11 11 11 12 12 12 11 10 11 16 30 47 34 15 19 22 24 24 26 25 23 20 17 12 7 6 9 16 22 24 21 15 11 7 4 3 6 10 15 14
4 5 5 5 5 5 6 6 6 6 5 4 5 7 9 10 9 9 9 11 12 11 11 11 11 12 11 11 11 11 11 11 11 11 10 9 9 8 13 30 40 30 16 17 20 18 15 12 9 6 5 4 2 3 8 16 23 25 24 18 13 8 4 2 6 11 16 17 13
5 5 4 4 3 2 1 2 2 3 3 3 2 4 6 9 10 9 8 9 10 10 10 9 10 10 10 9 9 10 11 10 10 10 10 10 10 9 12 26 33 28 20 19 19 12 3 -6 -8 -6 -4 -2 1 8 16 25 27 25 20 13 8 5 4 6 11 16 17 14 9
6 5 5 4 3 2 1 0 1 2 4 5 4 3 3 6 9 10 10 8 8 8 8 8 9 9 9 9 9 9 9 9 9 11 15 21 22 20 22 33 32 22 14 19 21 14 2 -8 -8 -6 -3 -1 6 14 22 27 26 22 16 10 6 6 7 12 15 15 12 8 9
7 6 6 6 5 4 3 2 2 3 5 8 8 6 4 3 7 11 13 12 10 8 7 6 6 7 7 8 8 9 8 8 7 10 14 22 26 29 33 40 27 11 2 12 18 14 5 -3 -2 -0 2 4 11 19 24 25 21 16 11 6 6 8 11 14 14 11 9 10 15
10 8 7 6 6 6 5 4 3 4 6 8 11 11 8 4 4 7 11 13 14 12 10 6 4 3 4 6 7 8 8 8 6 6 5 4 7 20 32 36 16 -1 -7 6 14 15 9 -0 -1 2 7 12 18 20 20 16 10 5 2 4 8 12 14 14 12 11 12 15 19
13 11 10 8 7 7 6 5 5 4 5 6 9 12 11 8 4 3 6 8 12 15 15 12 7 5 5 7 8 8 8 7 6 4 1 -4 -7 10 30 33 12 -4 -12 -5 5 10 11 5 1 2 6 10 11 9 5 1 -1 1 6 13 16 17 16 14 13 13 15 17 19
13 13 12 10 9 8 7 7 6 5 5 5 7 9 11 12 7 4 2 3 5 9 12 15 15 13 12 11 10 9 7 4 2 1 1 1 1 15 30 35 17 2 -7 -7 0 6 10 10 7 6 5 4 0 -3 -4 -4 1 9 17 23 23 21 17 13 12 13 14 16 15
8 9 11 11 10 8 7 7 7 6 6 5 5 7 9 11 10 7 3 -0 0 2 5 10 15 18 20 21 19 16 13 10 10 11 14 16 18 24 31 35 19 7 0 -1 3 6 9 14 19 20 17 12 6 2 1 4 10 18 25 29 25 19 13 8 7 9 12 13 12
3 5 6 8 8 8 7 7 7 7 7 6 5 5 6 9 10 8 5 2 1 1 0 1 3 9 17 27 32 33 32 31 33 36 40 42 40 39 36 30 17 9 6 5 4 3 5 15 28 34 33 26 18 12 9 11 17 23 28 29 23 15 7 2 3 6 10 11 9
4 3 4 5 6 6 6 6 7 7 7 7 6 6 5 6 7 7 6 3 3 3 3 0 -3 -4 -0 11 27 38 44 43 42 45 48 49 46 40 31 20 12 10 10 13 11 5 3 10 27 36 38 32 23 17 15 17 23 28 30 29 22 13 5 0 3 7 9 9 6
7 6 6 5 5 5 5 5 6 6 6 6 7 7 6 5 5 5 4 3 3 4 5 4 1 -5 -11 -13 -0 14 24 25 20 22 26 31 29 24 16 9 7 9 13 18 17 13 10 13 24 31 33 30 25 23 22 25 30 34 33 29 21 13 7 4 7 9 10 8 3
11 10 9 9 8 7 6 5 6 6 5 5 7 6 5 5 3 2 2 3 3 4 5 6 5 1 -6 -16 -21 -20 -16 -15 -17 -12 -2 11 17 17 13 8 7 10 15 20 21 19 18 19 22 25 27 28 28 29 31 33 35 34 30 22 14 9 6 8 11 12 11 8 4
16 14 13 12 11 10 9 7 7 8 9 8 9 10 9 7 4 2 0 2 3 4 4 5 6 5 3 -3 -14 -24 -33 -39 -40 -35 -24 -8 6 15 19 18 16 17 20 24 24 22 18 16 15 16 18 21 25 28 29 30 28 23 17 10 6 5 7 11 14 14 13 10 8
23 21 19 16 14 13 11 10 9 8 8 8 12 13 12 10 7 3 2 5 7 7 5 4 4 5 6 5 2 -5 -14 -27 -31 -31 -26 -19 -9 1 10 17 21 24 26 28 26 22 16 10 7 5 6 8 11 14 16 16 13 10 7 5 7 10 14 16 16 16 14 13 11
30 28 25 21 18 15 14 13 12 11 8 5 8 11 13 12 9 6 5 12 15 12 9 8 6 5 5 6 8 11 10 3 -4 -7 -7 -7 -8 -8 -7 -2 7 14 19 22 22 19 13 6 1 -3 -5 -5 -4 -3 -2 -1 -1 0 2 5 10 13 16 16 15 13 12 10 9
36 33 29 26 21 18 16 14 13 13 11 7 6 9 12 14 11 8 5 1 8 10 11 11 11 8 5 5 7 13 20 23 17 14 12 10 6 1 -5 -10 -8 -4 1 6 8 8 6 2 -3 -7 -10 -12 -12 -11 -10 -8 -6 -3 -0 3 5 7 8 8 7 7 6 6 7
40 35 31 28 23 20 19 20 15 14 15 15 9 8 9 12 10 8 5 1 3 6 8 8 9 8 5 3 4 11 19 26 22 20 19 19 18 14 9 2 -3 -5 -5 -3 -2 -1 -1 -2 -4 -6 -8 -8 -7 -5 -3 -1 2 4 5 5 5 4 4 4 4 5 5 7 9
42 37 32 28 24 17 14 22 14 13 15 16 13 11 9 8 8 8 8 9 9 9 8 6 6 6 4 2 3 8 15 23 21 19 19 21 21 20 19 16 12 10 8 7 5 3 2 2 1 1 2 3 5 8 10 13 14 14 14 12 11 10 10 9 10 10 12 13 13
43 39 35 30 26 16 8 12 10 10 12 16 15 14 11 9 9 8 8 8 8 9 9 10 10 8 6 3 3 7 13 20 19 18 18 19 20 21 21 21 21 21 21 20 17 15 13 11 11 11 13 14 16 18 20 21 20 20 19 18 18 17 17 16 16 17 17 17 16
43 41 39 35 30 24 17 11 7 7 9 14 13 12 12 11 10 9 8 8 7 7 7 10 10 10 9 7 5 6 10 16 18 18 17 18 19 20 21 22 22 23 25 26 24 22 19 17 17 18 19 20 21 21 21 21 20 20 20 20 20 19 19 18 18 18 18 17 16
44 43 42 40 34 30 24 17 9 8 12 19 17 14 12 11 11 10 9 8 8 7 7 10 11 13 13 11 7 6 8 14 19 20 19 18 19 20 21 23 23 23 23 24 24 22 20 18 18 19 19 19 19 19 19 18 18 18 19 19 18 17 16 16 16 16 15 14 12
42 43 43 42 38 33 27 19 13 15 23 31 31 27 21 17 16 15 13 11 12 11 11 14 16 16 14 12 8 6 9 17 23 25 24 21 21 21 22 24 23 22 21 20 20 20 19 17 16 15 16 16 16 16 16 16 16 17 17 16 14 13 12 12 11 10 9 8 7
37 40 42 44 40 35 27 19 20 28 39 46 47 45 40 31 25 22 20 17 18 16 14 13 17 16 13 9 5 4 7 17 25 28 27 25 23 22 22 22 21 20 18 17 17 18 18 17 15 13 13 13 13 13 13 13 14 14 13 11 9 8 8 7 6 5 4 4 4
32 36 40 43 41 35 27 17 19 30 43 52 54 54 52 47 37 29 23 19 17 15 11 5 8 10 10 5 1 -1 -0 6 17 23 26 24 22 20 19 18 17 17 16 15 16 16 17 17 15 13 12 11 10 10 10 10 10 9 7 6 5 4 4 3 3 3 3 3 3
27 32 37 42 41 36 26 14 7 7 14 23 30 36 40 44 36 29 22 15 12 10 8 3 3 5 7 6 1 -4 -8 -9 1 10 17 19 18 16 15 15 15 16 16 16 16 16 16 16 15 14 12 11 9 8 7 6 6 5 4 3 3 3 3 3 3 4 4 4 5
30 30 34 41 42 37 28 14 -4 -19 -25 -21 -10 2 14 25 24 21 18 14 11 9 7 5 6 7 8 7 6 1 -6 -12 -9 -1 7 12 14 15 15 16 17 17 17 16 16 15 15 14 14 13 12 11 9 7 6 4 4 4 4 4 5 5 6 6 6 6 6 6 7
31 29 30 36 42 41 32 19 -2 -22 -37 -41 -34 -23 -9 7 16 19 19 16 13 9 6 3 4 7 10 8 9 6 0 -7 -7 -4 2 8 12 15 17 17 17 16 16 15 14 13 12 12 11 11 10 9 9 7 6 5 5 6 7 9 10 10 10 10 9 8 8 8 8
26 24 24 29 38 42 39 26 10 -7 -22 -33 -34 -31 -23 -8 5 12 16 17 13 8 4 0 -5 -1 6 13 13 11 7 1 -2 -1 2 5 11 14 16 16 15 14 13 11 10 9 8 8 8 8 8 7 7 7 7 7 8 9 11 14 14 14 13 12 11 10 9 9 9
23 20 20 24 32 39 41 35 22 11 -0 -10 -16 -19 -19 -13 -4 4 9 12 10 2 -7 -9 -11 -6 3 14 16 14 8 3 1 1 3 5 9 13 14 14 13 11 10 8 7 6 5 5 5 5 5 6 7 7 8 9 11 13 14 16 15 14 13 12 11 10 10 10 10
26 22 20 21 26 32 36 38 30 22 15 8 2 -2 -5 -6 -3 1 5 7 8 7 5 -2 -5 0 10 17 18 15 11 6 4 3 4 5 9 12 12 12 12 11 9 7 6 5 4 4 4 5 6 7 8 9 10 11 12 13 14 14 13 12 12 11 10 10 10 10 10
27 25 23 20 22 26 30 35 33 29 24 20 16 11 6 2 3 5 7 10 14 17 16 11 9 14 20 19 17 16 16 13 11 9 7 7 10 11 11 11 11 10 8 7 6 6 6 7 7 8 8 8 9 9 10 10 10 10 10 10 10 9 9 9 9 9 9 10 10
25 24 24 23 21 21 24 29 32 31 30 28 27 23 18 12 11 12 15 19 21 24 26 26 25 26 26 22 21 20 21 22 21 17 13 12 11 11 11 10 9 7 6 6 6 8 9 10 10 10 10 10 9 9 8 8 8 7 7 7 8 8 8 9 9 9 10 10 11
22 19 18 19 19 19 22 26 30 32 33 34 35 33 29 22 19 19 19 19 20 24 28 31 33 33 28 18 15 17 21 26 25 22 18 15 14 13 11 9 7 6 5 6 7 9 10 11 11 11 10 10 9 8 8 7 7 7 7 7 8 8 9 9 9 10 10 11 13
16 13 10 10 13 16 20 26 30 33 35 36 37 36 32 25 20 17 15 14 15 19 23 28 34 33 24 7 5 8 14 20 21 20 18 16 14 12 10 7 6 5 6 7 8 9 10 11 11 11 10 9 9 9 9 9 9 8 8 8 8 9 9 10 10 11 12 13 14
11 11 9 7 8 12 17 25 32 35 36 36 34 29 23 17 14 11 8 8 10 14 19 25 31 27 16 1 3 6 10 14 15 16 15 13 10 8 7 6 6 7 7 8 9 10 11 12 12 11 10 10 10 11 11 11 10 9 9 9 9 10 10 11 11 12 13 14 14
9 11 12 11 9 11 15 22 31 36 38 36 29 20 13 8 6 4 3 2 7 12 18 23 22 16 7 1 3 7 10 12 12 12 11 8 6 5 6 8 8 7 7 7 9 10 12 13 13 12 11 11 12 13 13 13 11 10 9 10 10 11 11 11 12 13 13 13 12
10 13 14 14 12 12 14 20 28 35 38 36 27 18 10 5 3 2 1 1 6 12 16 18 12 8 6 6 2 3 7 12 11 9 7 5 5 7 9 10 8 6 5 5 8 11 13 14 13 13 13 13 14 14 14 12 11 10 10 11 11 11 11 11 12 12 11 10 9
16 14 12 11 12 13 14 17 24 31 36 36 29 22 15 9 7 6 5 6 9 12 13 11 7 7 10 13 1 -3 -0 7 8 7 6 6 9 11 12 10 6 4 3 5 9 12 14 14 13 13 14 15 15 14 13 11 10 10 10 11 10 10 10 10 10 9 8 6 5
21 15 10 7 12 14 15 15 19 25 31 35 32 26 20 14 12 11 11 12 13 13 11 10 9 10 14 19 5 -6 -9 -1 5 8 9 11 13 13 11 6 3 2 3 6 11 13 15 14 13 13 13 15 14 13 11 9 9 10 10 10 9 9 9 9 8 6 4 2 2
22 16 11 8 13 17 18 16 15 20 26 33 34 30 23 16 12 10 11 13 14 14 14 14 12 10 13 24 12 -5 -15 -7 5 11 13 14 12 8 4 0 0 1 3 7 12 14 15 14 12 12 12 12 11 10 9 9 10 10 9 8 8 7 6 5 5 3 2 1 2
Height
5597 5597 5597 5598 5599 5600 5600 5600 5601 5602 5602 5602 5602 5602 5602 5603 5603 5603 5603 5604 5604 5604 5604 5604 5605 5606 5607 5608 5608 5609 5609 5610 5611 5612 5613 5614 5616 5617 5616 5616 5616 5616 5616 5614 5614 5613 5613 5613 5614 5614 5615 5616 5616 5617 5617 5617 5618 5618 5618 5619 5619 5619 5620 5620 5622 5623 5623 5623 5624
5591 5591 5591 5592 5592 5593 5594 5594 5595 5596 5597 5597 5596 5596 5595 5596 5596 5597 5597 5597 5598 5598 5598 5598 5598 5600 5601 5602 5602 5602 5603 5605 5606 5607 5608 5609 5610 5611 5612 5612 5612 5612 5612 5612 5611 5610 5608 5608 5609 5610 5611 5611 5612 5612 5612 5612 5613 5613 5613 5614 5614 5614 5615 5616 5617 5618 5619 5619 5620
5585 5585 5585 5586 5586 5587 5587 5588 5589 5589 5590 5590 5590 5589 5589 5589 5590 5590 5591 5591 5591 5592 5592 5592 5592 5593 5594 5595 5596 5597 5597 5598 5600 5601 5602 5603 5604 5606 5607 5607 5607 5608 5608 5608 5607 5606 5604 5604 5605 5606 5606 5606 5607 5607 5607 5608 5608 5609 5608 5608 5608 5609 5611 5612 5612 5613 5614 5615 5616
5579 5579 5579 5580 5580 5581 5581 5581 5582 5582 5583 5583 5583 5583 5583 5584 5584 5584 5585 5585 5585 5586 5586 5587 5587 5588 5589 5590 5591 5591 5592 5593 5594 5596 5597 5599 5601 5601 5600 5601 5602 5602 5603 5604 5603 5602 5600 5600 5601 5601 5602 5602 5602 5602 5603 5603 5604 5604 5603 5603 5604 5605 5606 5607 5608 5608 5609 5611 5612
5573 5573 5573 5573 5574 5574 5574 5575 5575 5576 5576 5577 5578 5578 5578 5579 5579 5579 5579 5579 5579 5580 5581 5582 5583 5584 5585 5585 5586 5587 5587 5588 5589 5590 5592 5594 5595 5595 5595 5596 5597 5597 5599 5600 5600 5600 5599 5598 5597 5597 5597 5597 5598 5598 5599 5599 5599 5599 5599 5599 5600 5601 5602 5603 5604 5605 5606 5607 5608
5566 5566 5567 5567 5567 5568 5568 5569 5569 5569 5570 5571 5572 5573 5573 5574 5574 5575 5575 5574 5574 5575 5576 5577 5577 5578 5579 5580 5581 5582 5582 5583 5584 5585 5587 5588 5588 5589 5589 5590 5591 5593 5595 5597 5597 5597 5597 5597 5596 5595 5594 5594 5594 5595 5595 5596 5596 5595 5595 5595 5595 5597 5598 5599 5600 5601 5603 5604 5605
5559 5560 5560 5560 5561 5562 5562 5562 5562 5563 5563 5564 5565 5567 5567 5568 5569 5570 5569 5569 5569 5570 5571 5572 5573 5574 5574 5575 5576 5577 5578 5579 5579 5581 5582 5582 5583 5583 5584 5585 5586 5587 5588 5590 5592 5593 5594 5594 5594 5593 5592 5592 5592 5592 5592 5593 5592 5592 5592 5591 5591 5593 5595 5596 5597 5598 5600 5601 5602
5552 5553 5553 5553 5554 5555 5555 5556 5556 5557 5557 5558 5559 5560 5562 5562 5564 5564 5563 5563 5564 5565 5566 5567 5568 5569 5570 5571 5571 5572 5573 5574 5574 5575 5576 5577 5577 5577 5578 5579 5580 5582 5583 5584 5586 5588 5590 5591 5591 5591 5590 5590 5591 5591 5591 5591 5590 5590 5589 5588 5589 5591 5592 5594 5595 5596 5597 5598 5598
5545 5546 5547 5547 5547 5548 5549 5549 5550 5550 5551 5552 5553 5554 5555 5557 5558 5559 5558 5558 5558 5559 5561 5563 5564 5565 5565 5566 5567 5567 5568 5569 5569 5570 5571 5571 5572 5572 5573 5574 5575 5576 5577 5579 5582 5583 5585 5586 5587 5587 5587 5587 5587 5587 5587 5587 5587 5586 5586 5587 5588 5589 5590 5592 5592 5593 5594 5595 5595
5537 5538 5540 5540 5541 5542 5542 5542 5543 5544 5545 5546 5547 5548 5549 5551 5552 5553 5554 5554 5553 5554 5555 5557 5559 5561 5562 5562 5563 5563 5564 5564 5565 5565 5566 5566 5567 5568 5568 5569 5570 5571 5572 5573 5575 5577 5578 5580 5581 5582 5582 5582 5582 5582 5582 5582 5583 5583 5584 5585 5587 5587 5588 5589 5590 5591 5591 5592 5592
5528 5530 5532 5533 5534 5535 5536 5536 5537 5537 5539 5540 5542 5542 5544 5545 5547 5548 5549 5548 5549 5549 5549 5551 5553 5555 5556 5557 5558 5559 5559 5560 5561 5561 5562 5562 5563 5563 5564 5565 5566 5567 5568 5568 5570 5571 5572 5573 5574 5575 5576 5577 5577 5577 5578 5578 5579 5580 5582 5583 5584 5585 5586 5587 5587 5588 5588 5589 5589
5519 5521 5523 5525 5527 5529 5530 5530 5530 5531 5533 5534 5536 5537 5539 5540 5542 5543 5543 5543 5543 5543 5543 5545 5547 5549 5550 5552 5554 5555 5555 5555 5556 5557 5558 5559 5560 5560 5561 5562 5562 5563 5564 5565 5566 5567 5567 5568 5569 5570 5571 5571 5572 5573 5573 5574 5576 5577 5578 5580 5581 5582 5583 5584 5584 5585 5585 5585 5586
5510 5512 5514 5517 5520 5522 5523 5524 5524 5525 5527 5528 5530 5532 5534 5535 5537 5537 5538 5537 5537 5537 5538 5539 5542 5544 5545 5546 5548 5550 5551 5551 5552 5553 5555 5556 5557 5557 5558 5558 5559 5559 5560 5561 5562 5563 5563 5564 5565 5565 5566 5567 5567 5568 5569 5571 5572 5574 5575 5577 5578 5579 5580 5581 5581 5581 5582 5582 5582
5500 5503 5505 5508 5511 5514 5516 5517 5518 5519 5521 5522 5524 5526 5528 5530 5532 5532 5532 5532 5532 5532 5533 5534 5536 5537 5539 5540 5542 5544 5546 5547 5548 5549 5551 5552 5554 5554 5555 5555 5555 5556 5557 5557 5558 5559 5559 5560 5561 5562 5562 5563 5564 5565 5566 5567 5569 5571 5572 5573 5574 5575 5576 5577 5577 5577 5578 5578 5579
5489 5492 5496 5499 5503 5506 5508 5511 5512 5513 5515 5517 5518 5519 5522 5525 5527 5528 5528 5527 5526 5527 5528 5529 5531 5532 5533 5534 5536 5538 5541 5542 5543 5545 5547 5549 5550 5551 5552 5552 5552 5552 5553 5554 5554 5555 5555 5556 5557 5558 5559 5560 5561 5562 5563 5564 5566 5567 5568 5569 5570 5571 5572 5572 5573 5573 5574 5575 5575
5478 5482 5485 5490 5494 5497 5500 5503 5505 5507 5508 5511 5512 5513 5516 5519 5522 5523 5523 5522 5522 5522 5523 5524 5526 5527 5528 5529 5530 5532 5535 5537 5538 5540 5542 5545 5547 5548 5549 5549 5549 5550 5550 5551 5551 5552 5552 5553 5553 5554 5555 5556 5557 5558 5559 5561 5562 5563 5564 5565 5566 5567 5567 5568 5569 5570 5570 5571 5572
5466 5471 5475 5479 5484 5489 5493 5496 5499 5501 5502 5504 5505 5507 5509 5513 5516 5517 5517 5517 5517 5518 5520 5520 5521 5522 5523 5524 5525 5527 5529 5532 5533 5535 5538 5540 5542 5543 5545 5546 5546 5547 5547 5547 5548 5549 5549 5550 5551 5551 5552 5553 5554 5555 5556 5557 5558 5559 5560 5561 5562 5563 5563 5564 5565 5566 5566 5567 5567
5455 5460 5464 5469 5474 5480 5485 5488 5492 5495 5496 5498 5499 5500 5503 5507 5509 5510 5511 5511 5512 5513 5515 5516 5517 5518 5519 5520 5521 5522 5524 5527 5528 5531 5533 5535 5537 5539 5540 5541 5542 5543 5543 5544 5545 5545 5546 5547 5547 5548 5549 5550 5550 5551 5552 5553 5554 5555 5556 5557 5558 5559 5560 5560 5561 5562 5562 5563 5563
5445 5450 5455 5460 5465 5471 5476 5482 5486 5489 5491 5492 5493 5495 5497 5500 5502 5504 5505 5506 5507 5508 5510 5512 5512 5513 5515 5516 5517 5518 5520 5522 5524 5526 5528 5530 5532 5534 5535 5536 5537 5538 5539 5540 5540 5541 5542 5543 5543 5544 5545 5546 5547 5547 5548 5549 5550 5551 5552 5553 5554 5555 5556 5557 5557 5558 5558 5559 5559
5438 5442 5446 5452 5457 5462 5468 5474 5480 5484 5486 5487 5488 5490 5492 5494 5496 5498 5500 5502 5502 5504 5506 5507 5508 5509 5510 5512 5514 5515 5517 5518 5520 5522 5524 5526 5528 5530 5531 5532 5532 5533 5535 5535 5536 5537 5537 5538 5539 5540 5541 5542 5543 5544 5545 5546 5547 5547 5548 5549 5550 5551 5552 5553 5553 5554 5554 5555 5556
5432 5436 5440 5444 5450 5455 5461 5467 5473 5478 5481 5482 5483 5485 5487 5488 5491 5493 5495 5497 5498 5500 5502 5504 5505 5505 5507 5509 5511 5512 5513 5514 5517 5518 5520 5522 5524 5525 5527 5527 5528 5529 5530 5531 5532 5532 5533 5534 5535 5536 5537 5538 5539 5540 5541 5542 5543 5544 5545 5546 5547 5547 5548 5549 5549 5550 5551 5551 5552
5429 5432 5435 5439 5444 5449 5455 5461 5468 5474 5477 5477 5479 5481 5483 5484 5486 5488 5490 5492 5495 5497 5499 5501 5502 5502 5503 5505 5507 5509 5510 5512 5513 5515 5516 5518 5519 5521 5522 5523 5524 5525 5526 5527 5528 5529 5530 5531 5531 5532 5533 5534 5535 5536 5537 5538 5539 5540 5541 5542 5543 5544 5544 5545 5546 5547 5547 5548 5548
5426 5429 5432 5435 5439 5444 5451 5457 5464 5469 5472 5474 5475 5477 5479 5481 5482 5484 5486 5488 5491 5493 5495 5498 5498 5499 5500 5502 5504 5506 5507 5509 5510 5512 5513 5514 5515 5517 5518 5519 5521 5522 5522 5523 5524 5525 5526 5527 5528 5528 5530 5531 5532 5532 5533 5534 5535 5537 5537 5538 5539 5540 5541 5542 5542 5543 5544 5544 5545
5424 5426 5429 5432 5435 5441 5447 5454 5460 5464 5467 5469 5471 5473 5475 5477 5479 5480 5482 5484 5487 5490 5492 5494 5495 5496 5497 5499 5501 5502 5504 5506 5507 5508 5509 5511 5512 5513 5514 5515 5517 5517 5518 5519 5520 5521 5522 5523 5524 5525 5526 5527 5528 5529 5530 5531 5532 5533 5534 5535 5536 5537 5537 5538 5539 5539 5540 5541 5541
5422 5424 5426 5428 5432 5437 5443 5450 5456 5460 5461 5462 5464 5466 5469 5472 5474 5476 5477 5480 5483 5486 5489 5490 5492 5493 5494 5496 5497 5499 5501 5503 5504 5505 5506 5507 5508 5509 5510 5512 5513 5514 5515 5516 5517 5518 5519 5520 5521 5522 5523 5524 5525 5526 5527 5528 5529 5530 5531 5532 5533 5533 5534 5535 5535 5536 5537 5537 5538
5420 5422 5423 5426 5429 5433 5439 5445 5450 5454 5455 5457 5457 5459 5462 5465 5468 5470 5473 5476 5480 5483 5486 5488 5491 5491 5491 5492 5494 5495 5497 5500 5501 5502 5503 5504 5505 5506 5507 5508 5509 5510 5511 5512 5513 5514 5515 5516 5517 5518 5520 5521 5522 5523 5524 5525 5526 5527 5528 5529 5529 5530 5531 5532 5532 5533 5533 5534 5534
5418 5419 5421 5423 5425 5429 5434 5440 5444 5447 5449 5451 5452 5453 5455 5458 5462 5465 5468 5471 5476 5480 5483 5486 5487 5487 5487 5488 5490 5492 5494 5496 5498 5499 5501 5501 5502 5503 5504 5505 5506 5507 5508 5509 5510 5511 5512 5513 5514 5515 5517 5518 5519 5520 5521 5522 5523 5524 5525 5526 5527 5527 5528 5529 5529 5530 5530 5531 5531
5417 5417 5418 5420 5422 5425 5430 5434 5438 5440 5442 5444 5446 5448 5450 5453 5456 5459 5463 5467 5472 5477 5480 5482 5483 5483 5484 5485 5486 5488 5490 5492 5494 5496 5497 5498 5499 5500 5501 5502 5503 5504 5505 5506 5507 5508 5509 5510 5511 5512 5513 5515 5516 5517 5518 5519 5520 5521 5522 5523 5523 5524 5525 5526 5526 5527 5527 5527 5528
5416 5416 5417 5417 5419 5422 5425 5429 5433 5435 5437 5439 5441 5443 5446 5448 5451 5455 5458 5462 5467 5472 5476 5478 5478 5480 5481 5481 5482 5484 5486 5488 5491 5492 5494 5495 5496 5497 5498 5499 5500 5501 5502 5503 5504 5505 5506 5507 5508 5509 5510 5512 5513 5514 5515 5516 5517 5518 5519 5520 5521 5521 5522 5522 5523 5523 5524 5524 5525
5414 5415 5415 5415 5416 5418 5421 5425 5428 5431 5433 5435 5437 5440 5442 5445 5447 5451 5454 5458 5463 5467 5471 5474 5476 5477 5478 5478 5479 5480 5482 5485 5487 5489 5491 5492 5493 5494 5495 5496 5497 5498 5499 5500 5501 5502 5503 5504 5505 5506 5507 5509 5510 5511 5512 5513 5514 5515 5516 5517 5518 5518 5519 5519 5520 5521 5521 5521 5522
5412 5413 5414 5414 5414 5415 5417 5421 5424 5427 5430 5432 5434 5437 5439 5442 5445 5448 5452 5455 5459 5463 5467 5472 5474 5476 5477 5477 5476 5477 5479 5481 5484 5486 5487 5489 5490 5491 5492 5493 5494 5495 5496 5497 5498 5499 5500 5501 5502 5503 5505 5506 5507 5508 5509 5511 5512 5512 5513 5514 5515 5515 5516 5517 5517 5517 5518 5518 5519
5408 5410 5412 5413 5413 5413 5415 5417 5420 5422 5425 5428 5432 5434 5437 5440 5443 5447 5450 5453 5456 5460 5465 5469 5472 5475 5477 5476 5474 5474 5476 5477 5480 5482 5484 5485 5487 5488 5489 5490 5491 5492 5493 5494 5495 5496 5497 5498 5499 5501 5502 5503 5504 5506 5507 5508 5509 5510 5510 5511 5512 5512 5513 5513 5514 5515 5515 5516 5516
5405 5407 5409 5412 5412 5412 5413 5414 5416 5419 5422 5425 5429 5432 5436 5439 5443 5447 5450 5452 5454 5457 5461 5465 5468 5472 5475 5474 5472 5471 5472 5474 5477 5479 5481 5482 5483 5485 5486 5487 5488 5489 5490 5491 5492 5493 5494 5495 5497 5498 5499 5500 5502 5503 5504 5505 5506 5507 5507 5508 5508 5509 5510 5510 5511 5512 5512 5512 5513
5403 5404 5406 5409 5411 5411 5411 5412 5413 5416 5418 5422 5426 5430 5434 5438 5442 5446 5449 5451 5452 5455 5458 5462 5466 5470 5473 5472 5470 5468 5469 5471 5473 5475 5477 5479 5480 5482 5483 5484 5486 5487 5487 5488 5489 5490 5491 5492 5493 5495 5496 5497 5499 5500 5501 5502 5503 5503 5504 5505 5505 5506 5507 5507 5508 5508 5509 5509 5509
5402 5403 5404 5406 5408 5409 5409 5409 5411 5413 5415 5419 5422 5427 5431 5436 5440 5443 5446 5448 5450 5453 5456 5460 5463 5468 5471 5470 5467 5466 5467 5468 5470 5472 5474 5476 5477 5479 5480 5482 5483 5484 5485 5486 5486 5487 5488 5489 5490 5492 5493 5494 5496 5497 5498 5499 5500 5500 5501 5502 5502 5503 5503 5504 5505 5505 5506 5506 5506
5401 5402 5402 5403 5405 5407 5407 5407 5408 5410 5412 5415 5419 5423 5428 5433 5437 5440 5443 5445 5447 5450 5453 5457 5461 5466 5468 5467 5465 5463 5464 5465 5467 5469 5471 5473 5474 5476 5477 5479 5480 5481 5482 5482 5483 5484 5485 5486 5487 5488 5490 5491 5492 5494 5495 5496 5496 5497 5498 5498 5499 5500 5500 5501 5501 5502 5502 5502 5503
5400 5401 5401 5402 5403 5404 5405 5406 5406 5408 5410 5413 5416 5420 5425 5428 5432 5436 5439 5442 5445 5447 5450 5453 5458 5462 5464 5464 5462 5460 5460 5462 5464 5466 5468 5470 5472 5473 5475 5476 5477 5478 5479 5480 5480 5481 5482 5483 5484 5486 5487 5488 5489 5491 5492 5492 5493 5494 5494 5495 5496 5497 5497 5497 5498 5498 5499 5499 5500
5398 5399 5399 5400 5401 5402 5403 5404 5404 5406 5408 5411 5414 5417 5421 5425 5428 5432 5435 5439 5442 5445 5447 5451 5454 5458 5462 5462 5460 5458 5457 5460 5462 5463 5465 5467 5469 5471 5472 5473 5475 5476 5476 5477 5477 5478 5479 5480 5482 5482 5484 5485 5487 5487 5488 5489 5490 5491 5491 5492 5492 5493 5494 5494 5495 5495 5496 5496 5496
5396 5397 5397 5398 5399 5400 5401 5402 5403 5404 5406 5408 5411 5414 5418 5422 5426 5429 5432 5436 5439 5442 5445 5448 5451 5455 5459 5461 5458 5456 5455 5457 5459 5461 5462 5464 5466 5468 5469 5471 5472 5473 5474 5474 5475 5476 5477 5477 5479 5480 5481 5482 5483 5484 5485 5486 5487 5487 5488 5489 5489 5490 5491 5491 5492 5492 5493 5493 5493
5393 5394 5395 5396 5397 5398 5399 5400 5401 5402 5404 5406 5409 5412 5415 5419 5424 5427 5430 5433 5436 5439 5442 5445 5448 5452 5456 5457 5456 5454 5453 5454 5456 5458 5460 5462 5463 5465 5466 5467 5469 5470 5471 5472 5472 5473 5474 5475 5476 5477 5478 5479 5480 5481 5482 5483 5484 5484 5485 5486 5487 5487 5488 5488 5489 5489 5490 5490 5490
5390 5392 5393 5394 5395 5396 5397 5398 5400 5401 5402 5404 5406 5409 5413 5417 5422 5426 5428 5430 5433 5436 5439 5442 5446 5449 5452 5452 5452 5452 5451 5452 5454 5456 5457 5459 5461 5462 5463 5465 5466 5468 5469 5470 5470 5471 5472 5472 5473 5474 5475 5476 5477 5478 5479 5480 5481 5482 5482 5483 5484 5484 5485 5486 5486 5487 5487 5487 5487